Regional Weather Roundup
Issued by NWS

Home | Current Version | Previous Version | Text Only | Print | Product List | Glossary On
Versions: 1 2 3 4 5 6 7 8 9 10 11 12 13 14 15 16 17 18 19 20 21 22 23 24 25 26 27 28 29 30 31 32 33 34 35 36 37 38 39 40 41 42 43 44 45 46 47 48 49 50
000
ASUS44 KMEG 261810
RWRTN
TENNESSEE HOURLY STATE WEATHER ROUNDUP
NATIONAL WEATHER SERVICE MEMPHIS TN
100 PM CDT TUE JUL 26 2016

TNZ002-004-019-021-049-052-054-088>092-261900-
WEST TENNESSEE

CITY           SKY/WX    TMP DP  RH WIND       PRES   REMARKS
MEMPHIS INTL   MOSUNNY   93  72  50 S8        29.99F HX 101
NWS MEMPHIS      N/A     93 N/A N/A MISG        N/A
JACKSON        MOSUNNY   93  72  50 VRB5      30.00F HX 101
DYERSBURG      SUNNY     91  73  55 MISG      29.99F HX 100
UNION CITY     MOSUNNY   93  75  55 SW5       29.99F HX 104
PARIS          SUNNY     90  73  58 W6        30.03S HX  98
LEXINGTON      SUNNY     93  70  46 VRB5      30.01F HX  99
$$

TNZ008-025-027-028-033-062-065-066-261900-
NORTH MIDDLE TENNESSEE

CITY           SKY/WX    TMP DP  RH WIND       PRES   REMARKS
NASHVILLE      PTSUNNY   95  68  41 NW6       30.02F HX  99
CLARKSVILLE    SUNNY     90  73  57 W6        30.01F HX  98
SMYRNA         MOSUNNY   93  70  47 NE7       30.02F HX  98
COOKEVILLE     SUNNY     93  75  55 VRB3      30.04F HX 104
CROSSVILLE     CLOUDY    85  71  63 SW3       30.11F HX  90
$$

TNZ061-075-076-078-094-096-097-261900-
SOUTH MIDDLE TENNESSEE

CITY           SKY/WX    TMP DP  RH WIND       PRES   REMARKS
FAYETTEVILLE   SUNNY     90  73  58 VRB3      30.04F HX  98
TULLAHOMA      SUNNY     90  70  51 S6        30.07F HX  95
WINCHESTER     SUNNY     91  72  52 CALM      30.05F HX  98
MCMINNVILLE    SUNNY     91  77  62 VRB3      30.06F HX 105
COLUMBIA       MOSUNNY   93  72  49 E6        30.01F HX 100
SHELBYVILLE    SUNNY     91  79  66 CALM      30.05F HX 107
$$

TNZ017-018-042-046-047-261900-
NORTHEAST TENNESSEE

CITY           SKY/WX    TMP DP  RH WIND       PRES   REMARKS
TRI CITIES     PTSUNNY   90  69  50 VRB3      30.08F HX  94
ELIZABETHTON   PTSUNNY   90  72  55 VRB3      30.07F HX  96
$$

TNZ012-013-036-069-073-074-261900-
CENTRAL EAST TENNESSEE

CITY           SKY/WX    TMP DP  RH WIND       PRES   REMARKS
KNOXVILLE      CLOUDY    91  70  49 VRB3      30.04F HX  96
OAK RIDGE      SUNNY     92  71  50 VRB3      30.05F HX  98
GATLINBURG       N/A     90  70  51 NW3       30.03F HX  95
MORRISTOWN     MOSUNNY   91  70  49 N7        30.05F HX  97
$$

TNZ083-085-099-261900-
SOUTHEAST TENNESSEE

CITY           SKY/WX    TMP DP  RH WIND       PRES   REMARKS
CHATTANOOGA    MOSUNNY   94  69  44 N3        30.03F HX  99
$$

SKY/WX REPORTED AS FAIR MEANS FEW OR NO CLOUDS BELOW
12 THOUSAND FEET.





USA.gov is the U.S. government's official web portal to all federal, state and local government web resources and services.